sat.trackr.live / text

‹ back to catalog

STARLINK-4374

NORAD 53652 · 2022-105E

PAYLOAD ACTIVE UNKNOWN

§ Identity

Operator
Country
US
Launch date
2022-08-31
Launch site
AFWTR
Launch vehicle
Mass (kg)
RCS (m²)

Purposes: comms

External: N2YO · Heavens-Above · Gunter

§ Orbital elements

Epoch: 2026-05-25T02:37:01.805952Z

Period
95.64 min
Inclination
97.4506°
Eccentricity
0.0002122
Mean motion
15.05654379 rev/d
Perigee alt
548.0 km
Apogee alt
551.0 km
Semi-major
6,927.6 km
B*
-6.0734e-5
RAAN
25.0511°
Arg perigee
78.2255°
Mean anomaly
281.9210°
Rev number
20,472

§ Raw data

STARLINK-43741 53652U 22105E   26145.10904868 -.00000935  00000+0 -60734-4 0  99972 53652  97.4506  25.0511 0002122  78.2255 281.9210 15.05654379204727

JSON: /api/v1/satellites/53652 · /tle

For live sub-satellite position, see the globe view (requires WebGL).

§ Visibility from observer

Set your observer location to see the next 7 days of passes ≥ 10°. The values pass through the URL so the page stays shareable.

No JS? Fill the form by hand. The geolocation button needs JavaScript.